"Pseudo-MPEC" for P10LPUO

Created 2019 Feb 27 17:18:29 UT using Find_Orb

Click here for an explanation of pseudo-MPECs

 
 Astrometry: 
     P10LPUO  C2019 01 24s*lUGUgnQtQ!y;2SI/#[BrH4+p$:w-,IAstrometrytrGH#HN?!DF51
     P10LPUO  C2019 01 24]^PKiOa;'dgga_?cbg8[C\gR)(de?I;jlot.0UL2B9*^SIGok9Q4F51
     P10LPUO  C2019 01 24w?Slcb].rlZ_5MiMmtP84'L=ylPSvMr*t5*\M8.?LG.y7[^VVvD7F51
     P10LPUO  C2019 01 24j?oNm*XOWJ7Qv__vPAV4QfduWf6GZ(D$!m-nwew/jh`fMEWfLEqlF51
     P10LPUO |C2019 01 27c?HBt;OB9ns^ab%iauNHFy:/F_]hH7DPRsrEhEGL,c+OK'PSOPRC807
     P10LPUO |C2019 01 27!7AEAM?9M-^N3E8sN=$J)TLnU4ljrm\m9#@XqG?/v,.h%]_%a/.p807
     P10LPUO |C2019 01 27eu$Gh=$bOu0H_`Tm(4PgmlvVbak\H6GC:H1WM`].;wc.%Q9lD+BT807
     P10LPUO 1C2019 01 28=AjXCUiI)*%f8@U)C,Bj+M2_tp9!j`r1Q*.,NXiX70pXNaq2)aq0Q62
     P10LPUO 1C2019 01 28501;/DAkX!Lj)RQ!?4jDj!\i%uXj-redacted;X+#AaGb-#ubOelQ62
     P10LPUO 1C2019 01 28E*b!@Q/p#AVcq'%$^ggfYI]Z$Bw$_%G6+=yV@uf^][=b?),^b0uvQ62
     P10LPUO KC2019 01 29KyIW#g6xS666qSRjq[P/w:*s]GOTZ!-]2#`y98,)Nv()DSt=iGiLI47
     P10LPUO KC2019 01 29dbBgHuZ;[ciXcK;aYY6vu%w?Q!c,24=wv9xiymJb]\bwguW#K,\II47
     P10LPUO KC2019 01 31W73-*,_s+SDGjZMRXo(5LSu/!vjp=GaPTl\9eAFci6Dpieqk8Jf!I47
     P10LPUO KC2019 01 31J2UU@Gk4ggZPVqNL:*8eu*5+p]($Iv(5,7V-)jtpJKuSR5^D3(jOI47
     P10LPUO KC2019 01 31FG%R8[`AKZkP_KK9X;Q;d++:rl[h0K51PgJf'E7bkA!GntbEQ#06I47
     P10LPUO KC2019 01 31?df+nS/Z[.LwyGRpnGjVlA4WwZ@,s=%7]d,jsf%\l[:UQ.v?HqS%I47
     P10LPUO KC2019 02 01@op#4VmaCsCiOY)*08``1/XdhaHM08`Pa1-Og7dMZT#97a$OHd`1I47
     P10LPUO KC2019 02 01mrAw4R*cs_825F5(]w`gyK'dG,=+fCR_dPsp4\js7\`(Oclick.eI47
     P10LPUO KC2019 02 02iu@,`*3yH=r?Q/c%E?'n4lu]yW3DS-P3G4G]=?I(e((dG.k;w7jZ474
     P10LPUO KC2019 02 02?2fT3g7*,mSi2[qv\ZAxW2B7W3]4\-BosP\`AfF4tiFUav8uqjR)474
     P10LPUO KC2019 02 02c\x2/NHIIio]c9)rTY0OPT[4A$tu_#w#_PinX8=([geDIZ\'c3[D474
     P10LPUO KC2019 02 02y)?^Yb-kT$s5k9YKv_xWHelFfIIbTe;]^Sp`bUe5j0($6xTuQ1x#474
     P10LPUO ^C2019 02 04.65889912 17 24.622-38 39 14.69   ~24Jm 19.10GVNEOCP568
     P10LPUO ^C2019 02 04.66008012 17 24.589-38 39 15.17   ~24Jm 19.29GVNEOCP568
     P10LPUO ^C2019 02 04.66125912 17 24.558-38 39 15.62   ~24Jm 19.35GVNEOCP568
     P10LPUO  C2019 02 06f`rJ9i%T+Z?t$)W\?U6o,!G#YE,_m+tYkm^^\c8Aw1;U;L84(N]hW85
     P10LPUO  C2019 02 06Hw\w0Mjnf1$Gb6+iVsK^19ho_Qy6TPsQau/f!uE]5rU@a1mfJ$ZlW85
     P10LPUO  C2019 02 06XN]s)X(o3#n5;)-pII\qi`OIR#hP_x(=L?6/QrYdPMykWa;ZdQQSW85
     P10LPUO  C2019 02 06twCW:Jv*YN#88S@lxwS9WqEcJ\x'6M!here4pX(@.3T\jFOCfAucW85
     P10LPUO KC2019 02 07IJ6QP$+nN=wId#b.Ik+jfSnn(m(t=R0n\kLB__6I?T\b*Mmt:s'b474
     P10LPUO KC2019 02 07VIA8:mZSmtjq9DQOa[#./q\kY$U5(9b^b)vVv10D_T;RxF(9(+Hk474
     P10LPUO KC2019 02 07%j+gNmK$$G54kth`'@-/Zin\ZJ@q9(.rr9`Fa1Je2:SXhAoa%$uH474
     P10LPUO KC2019 02 156Yb.QVHQq3V\p5X^0P.KV2!$_2a[doKwX4)h\Z_J6uJ`d(yN2-yBI47
     P10LPUO KC2019 02 15nQXsNj-W2jlKn\Cdvl2)kUFV53r]d*VlNd$`.peVRetO)NKu`.AoI47
     P10LPUO KC2019 02 157\Gd1ehKM87)EWt,+[FboMCu[wsL;UNZ@9HlAa)$`+\4kAh'AQ]kI47
     P10LPUO KC2019 02 17@tHnTibV[)q-W#Clo?ZP:e3+D:K8sdXG3MUVi1kr]/Yn2W:[vu1jL29
     P10LPUO KC2019 02 17Pf@cg-jBcY.TQkcd_OA1qOvbCul\im2Uguwt??7xMk)r.n28ifIaL29
     P10LPUO KC2019 02 17t0-?*\XV6pTfor=;86J`HbO4e6)0mA+poYWi=m_uIukX9ap)eVQ'L29
     P10LPUO |C2019 02 24Cw`m1sJ6`eA51y(ro1]%de50;7f^i(x\:qan-Y.Mx^VI89O.W:Dg807
     P10LPUO |C2019 02 24l;*=Vx%5aRi_6ielmW_Bfp6d]Eyjl$Z8?dVu=[d$3S=#w(Ij:bfZ807
     P10LPUO |C2019 02 249mGt`@^oUQ3YdgPA3jbMRN-d*QY_NrRPl8p+.@`_St#tJD8]h0@(807
     P10LPUO KC2019 02 24Q6$'\pQg%qN%HByrf8VUl@Ou84anQ3Eg7$a2kf)s+.A'bnGT$VFxI47
     P10LPUO KC2019 02 24Kp^maeqwbiZ\NCW/+%V9]3_\s[LmreBJe]i\_@y(T50wF?\Lvu/cI47
     P10LPUO KC2019 02 24B]Gda3GPI`JHi%7yV^?90;hsX#?:MkCI(D3D14N[uy]d$ucZY\MCI47
     P10LPUO |C2019 02 27#!Z$=E8a05E!4]?lX]'k?.hq$^R(^-b^1Y)#@n*V9_Dv%k.rS[A,807
     P10LPUO |C2019 02 27D$//^m3$a=4TV3Q5$9Qvm3V4s;H`,0eP5u:sBMQ]D@7TSBjW\A-O807
     P10LPUO |C2019 02 27Bev.pe]08Y7D5dSi=PYt2U[acD$EWjhCAP9,g#explanationyF:807

Station data:
(474) Mount John Observatory, Lake Tekapo  (S43.987388 E170.464960)  New
   Zealand.  Observers A. C. Gilmore, P. M. Kilmartin. Measurer P. M.
   Kilmartin. 1.0-m f/7.7 reflector + CCD.
(568) Mauna Kea  (N19.826116 W155.472200)  US/Hawaii.
(807) Cerro Tololo Observatory, La Serena  (S30.169136 W70.805900)  Chile.
   1.5-m Ritchey-Chrétien.
(F51) Pan-STARRS 1, Haleakala  (N20.707235 W156.255910)  US/Hawaii.
   Observers N. Primak, A. Schultz, S. Watters, J. Thiel, T. Goggia. Measurer
   PS1 Science Consortium. 1.8-m Ritchey-Chrétien + CCD.
(I47) Pierre Auger Observatory, Malargüe  (S35.495442 W69.449700)  Argentina.
(L29) Drebach-South Observatory, Windhoek  (S23.460102 E18.016900)  Namibia.
(Q62) iTelescope Observatory, Siding Spring  (S31.273289 E149.064420)
   Australia/NSW. 0.50-m f/6.8 astrograph + CCD + focal reducer, 0.70-m f/6.6
   astrograph + CCD.
(W85) Cerro Tololo-LCO A  (S30.167407 W70.804810)  Chile.  Observers T.
   Lister, S. Greenstreet, E. Gomez. Measurer T. Lister. 1.0-m f/8
   Ritchey-Chrétien + CCD.

Orbital elements:  P10LPUO
   Perihelion 2021 Jan 18.488173 +/- 1.08 TT = 11:42:58 (JD 2459232.988173)
Epoch 2019 Feb 27.0 TT = JDT 2458541.5                        AutoNEOCP
q   6.83219827 +/- 0.00935          (J2000 ecliptic)
H   10.1  G 0.15                    Peri.  263.74508 +/- 0.14
                                    Node   358.39943 +/- 0.014
e   1.0013806 +/- 0.00256           Incl.   66.51739 +/- 0.017
From 47 observations 2019 Jan. 24-Feb. 27; mean residual 0".37
Residuals in arcseconds: 
190124 F51  .03-  .29-    190201 I47  .72+  .25+    190215 I47  .30+  .03+    
190124 F51  .13-  .22-    190201 I47  .51+  .52+    190215 I47  .46+  .18-    
190124 F51  .07-  .02-    190202 474  .23-  .42-    190215 I47  .15+  .00     
190124 F51  .23-  .18-    190202 474  .08-  .47+    190217 L29  .01+  .21-    
190127 807  .08-  .13+    190202 474  .75-  .84-    190217 L29  .07-  .08+    
190127 807  .14-  .08+    190202 474  .12+  .45-    190217 L29  .26-  .27+    
190127 807  .29-  .09+    190204 568  .17+  .28+    190224 807  .21-  .01-    
190128 Q62  .11+  .34-    190204 568  .09+  .18+    190224 807  .20-  .26+    
190128 Q62  .04+  .44-    190204 568  .03+  .11+    190224 807  .05+  .12+    
190128 Q62  .15-  .54-    190206 W85  .20-  .25-    190224 I47  .69-  .35+    
190129 I47  .99+  .81+    190206 W85  .27-  .19-    190224 I47  .56-  .08+    
190129 I47  .19+  .44+    190206 W85  .28-  .27-    190224 I47  .53-  .01-    
190131 I47  .58-  1.0+    190206 W85  .28-  .34-    190227 807  .89+  .57-    
190131 I47  .11+  .38-    190207 474  .14+  .04-    190227 807  .41+  .12-    
190131 I47  .43+  .60+    190207 474  .19+  .03-    190227 807  .26+  .10+    
190131 I47  .62-  .37+    190207 474  .24+  .21-    

Ephemerides (geocentric):
Date (UTC) HH   RA              Dec         delta   r     elong  mag " sig PA
---- -- -- --  -------------   -----------  ------ ------ -----  --- ---- ---
2019 02 27 17  12 06 38.373   -40 23 33.94  7.5284 8.1674 127.4 19.5 .132 133
2019 02 27 18  12 06 36.959   -40 23 42.74  7.5278 8.1673 127.4 19.5 .133 133
2019 02 27 19  12 06 35.544   -40 23 51.54  7.5273 8.1671 127.4 19.5 .134 133
2019 02 27 20  12 06 34.128   -40 24 00.33  7.5268 8.1670 127.4 19.5 .136 133
2019 02 27 21  12 06 32.711   -40 24 09.11  7.5263 8.1668 127.5 19.5 .137 133
2019 02 27 22  12 06 31.294   -40 24 17.87  7.5258 8.1667 127.5 19.5 .138 133
2019 02 27 23  12 06 29.876   -40 24 26.63  7.5253 8.1665 127.5 19.5 .139 133
2019 02 28 00  12 06 28.457   -40 24 35.38  7.5248 8.1664 127.6 19.5 .140 133
2019 02 28 01  12 06 27.037   -40 24 44.12  7.5243 8.1663 127.6 19.5 .141 133
2019 02 28 02  12 06 25.617   -40 24 52.84  7.5238 8.1661 127.6 19.5 .143 133
2019 02 28 03  12 06 24.196   -40 25 01.56  7.5233 8.1660 127.6 19.5 .144 133
2019 02 28 04  12 06 22.774   -40 25 10.27  7.5228 8.1658 127.7 19.5 .145 133
2019 02 28 05  12 06 21.351   -40 25 18.96  7.5223 8.1657 127.7 19.5 .146 133
2019 02 28 06  12 06 19.928   -40 25 27.65  7.5218 8.1655 127.7 19.5 .147 133
2019 02 28 07  12 06 18.504   -40 25 36.33  7.5213 8.1654 127.8 19.5 .149 133
2019 02 28 08  12 06 17.079   -40 25 44.99  7.5208 8.1653 127.8 19.5 .150 133
2019 02 28 09  12 06 15.654   -40 25 53.65  7.5202 8.1651 127.8 19.5 .151 133
2019 02 28 10  12 06 14.227   -40 26 02.30  7.5197 8.1650 127.8 19.5 .152 133
2019 02 28 11  12 06 12.800   -40 26 10.93  7.5192 8.1648 127.9 19.5 .153 133
2019 02 28 12  12 06 11.373   -40 26 19.56  7.5187 8.1647 127.9 19.5 .155 133
2019 02 28 13  12 06 09.944   -40 26 28.18  7.5182 8.1645 127.9 19.5 .156 133
2019 02 28 14  12 06 08.515   -40 26 36.78  7.5177 8.1644 128.0 19.5 .157 133
2019 02 28 15  12 06 07.085   -40 26 45.38  7.5172 8.1642 128.0 19.5 .158 133
2019 02 28 16  12 06 05.654   -40 26 53.96  7.5167 8.1641 128.0 19.5 .159 133
2019 02 28 17  12 06 04.223   -40 27 02.54  7.5162 8.1640 128.0 19.5 .161 133
2019 02 28 18  12 06 02.791   -40 27 11.10  7.5157 8.1638 128.1 19.5 .162 133
2019 02 28 19  12 06 01.358   -40 27 19.66  7.5152 8.1637 128.1 19.5 .163 133
2019 02 28 20  12 05 59.924   -40 27 28.21  7.5147 8.1635 128.1 19.5 .164 133
2019 02 28 21  12 05 58.490   -40 27 36.74  7.5142 8.1634 128.1 19.5 .166 133
2019 02 28 22  12 05 57.055   -40 27 45.26  7.5137 8.1632 128.2 19.5 .167 133
2019 02 28 23  12 05 55.619   -40 27 53.78  7.5132 8.1631 128.2 19.5 .168 133
2019 03 01 00  12 05 54.182   -40 28 02.28  7.5127 8.1630 128.2 19.5 .169 133
2019 03 01 01  12 05 52.745   -40 28 10.78  7.5122 8.1628 128.3 19.5 .171 133
2019 03 01 02  12 05 51.307   -40 28 19.26  7.5117 8.1627 128.3 19.5 .172 133
2019 03 01 03  12 05 49.868   -40 28 27.74  7.5112 8.1625 128.3 19.5 .173 133
2019 03 01 04  12 05 48.429   -40 28 36.20  7.5107 8.1624 128.3 19.5 .174 133
2019 03 01 05  12 05 46.989   -40 28 44.65  7.5103 8.1622 128.4 19.5 .176 133
2019 03 01 06  12 05 45.548   -40 28 53.10  7.5098 8.1621 128.4 19.5 .177 133
2019 03 01 07  12 05 44.106   -40 29 01.53  7.5093 8.1620 128.4 19.5 .178 133
2019 03 01 08  12 05 42.664   -40 29 09.95  7.5088 8.1618 128.4 19.5 .179 133
2019 03 01 09  12 05 41.221   -40 29 18.37  7.5083 8.1617 128.5 19.5 .181 133
2019 03 01 10  12 05 39.777   -40 29 26.77  7.5078 8.1615 128.5 19.5 .182 133
2019 03 01 11  12 05 38.333   -40 29 35.16  7.5073 8.1614 128.5 19.5 .183 133
2019 03 01 12  12 05 36.888   -40 29 43.54  7.5068 8.1612 128.6 19.5 .184 133
2019 03 01 13  12 05 35.442   -40 29 51.92  7.5063 8.1611 128.6 19.5 .186 133
2019 03 01 14  12 05 33.995   -40 30 00.28  7.5058 8.1610 128.6 19.5 .187 133
2019 03 01 15  12 05 32.548   -40 30 08.63  7.5053 8.1608 128.6 19.5 .188 133
2019 03 01 16  12 05 31.100   -40 30 16.97  7.5048 8.1607 128.7 19.5 .190 133